DateTimeUTC,F1_A11,F1_S11,BsB_S11,BsG_S11,BsR_S11,BbsB_S11,BbsG_S11,BbsR_S11,BaB_A11,BaG_A11,BaR_A11,Tu_S11,T_S11,Uu_S11,U_S11,P_S11,T1_A11
2021-09-26T04:00:00Z,00000200,21000000,,,,,,,0000.14,0000.06,0000.03,16.4,23.5,,00.0,0670.2,30.8
2021-09-26T04:01:00Z,00000200,21000000,,,,,,,-000.36,0000.02,-000.17,16.4,23.5,,00.0,0670.2,30.9
2021-09-26T04:02:00Z,00000200,21000000,,,,,,,-000.04,-000.45,0000.07,16.5,23.5,,00.0,0670.2,30.9
2021-09-26T04:03:00Z,00000200,61000000,,,,,,,0000.89,0001.11,0000.46,16.5,23.6,,00.0,0670.2,30.9
2021-09-26T04:04:00Z,00000200,41000000,0003.89,0003.40,0002.23,0000.51,0000.28,0000.50,0001.27,0000.89,0000.53,16.9,23.5,,00.0,0671.2,30.9
2021-09-26T04:05:00Z,00000200,01000000,0005.17,0003.24,0001.96,0001.29,0000.23,0000.41,0000.56,0000.73,0001.05,17.0,23.5,,00.0,0671.3,30.9
2021-09-26T04:06:00Z,00000200,01000000,0004.69,0003.29,0001.76,0000.50,0000.44,0000.46,0000.96,0001.31,0000.28,17.0,23.5,,00.0,0671.2,30.9
2021-09-26T04:07:00Z,00000200,01000000,0004.07,0003.27,0002.24,0000.82,0000.42,0000.53,0001.01,0000.22,0000.57,16.9,23.4,,00.0,0671.2,30.9
2021-09-26T04:08:00Z,00000200,01000000,0004.25,0003.49,0001.74,0000.37,0000.76,0000.28,0001.09,0001.00,0001.15,16.9,23.4,,00.0,0671.2,30.8
2021-09-26T04:09:00Z,00000200,01000000,0004.42,0003.58,0002.04,0000.26,0001.04,0000.26,0000.94,0000.71,0000.37,16.8,23.4,,00.0,0671.2,30.8
2021-09-26T04:10:00Z,00000200,01000000,0003.91,0003.00,0001.86,0000.93,0000.52,0000.60,0000.77,0000.88,0000.39,16.7,23.3,,00.0,0671.2,30.8
2021-09-26T04:11:00Z,00000200,01000000,0003.88,0003.24,0002.07,0000.66,0000.34,0000.50,0001.42,0001.32,0000.97,16.7,23.3,,00.0,0671.2,30.8
2021-09-26T04:12:00Z,00000200,01000000,0004.92,0003.40,0002.24,0000.97,0000.45,0000.56,0000.98,0000.69,0001.09,16.7,23.3,,00.0,0671.2,30.8
2021-09-26T04:13:00Z,00000200,01000000,0004.80,0003.58,0002.18,0001.16,0000.65,0000.36,0001.35,0001.41,0000.76,16.7,23.3,,00.0,0671.2,30.8
2021-09-26T04:14:00Z,00000200,01000000,0004.27,0003.39,0002.19,0000.43,0000.60,0000.39,0001.07,0000.73,0000.84,16.7,23.3,,00.0,0671.2,30.8
2021-09-26T04:15:00Z,00000200,01000000,0005.05,0003.75,0002.05,0000.61,0000.65,0000.66,0000.61,0000.92,0000.43,16.8,23.3,,00.0,0671.3,30.9
2021-09-26T04:16:00Z,00000200,01000000,0004.15,0003.70,0002.02,0000.55,0000.76,0000.50,0001.25,0001.31,0000.68,16.9,23.3,,00.0,0671.3,30.9
2021-09-26T04:17:00Z,00000200,01000000,0004.17,0002.92,0002.04,0000.27,0000.68,0000.60,0001.24,0000.92,0001.01,16.9,23.4,,00.0,0671.3,30.9
2021-09-26T04:18:00Z,00000200,01000000,0004.70,0003.21,0002.01,0000.68,0000.52,0000.18,0001.02,0001.00,0000.55,17.0,23.4,,00.0,0671.3,30.9
2021-09-26T04:19:00Z,00000200,01000000,0004.64,0003.55,0002.05,0000.44,0000.04,0000.69,0000.92,0000.51,0000.36,17.0,23.4,,00.0,0671.2,30.9
2021-09-26T04:20:00Z,00000200,01000000,0005.22,0003.42,0002.38,0000.84,0000.43,0000.44,0000.80,0000.82,0000.75,16.9,23.4,,00.0,0671.2,30.9
2021-09-26T04:21:00Z,00000200,01000000,0004.90,0003.31,0001.93,0000.72,0000.47,0000.36,0001.07,0001.23,0000.62,16.9,23.4,,00.0,0671.2,30.9
2021-09-26T04:22:00Z,00000200,01000000,0005.72,0003.28,0002.21,0000.72,0000.43,0000.54,0000.89,0000.73,0000.64,16.8,23.3,,00.0,0671.2,30.8
2021-09-26T04:23:00Z,00000200,01000000,0005.18,0003.37,0001.95,0001.05,0000.31,0000.33,0001.40,0001.15,0000.87,16.7,23.3,,00.0,0671.2,30.8
2021-09-26T04:24:00Z,00000200,01000000,0005.54,0003.26,0002.41,0001.13,0000.35,0000.42,0000.83,0000.68,0000.80,16.7,23.3,,00.0,0671.1,30.8
2021-09-26T04:25:00Z,00000200,01000000,0005.89,0003.55,0002.40,0000.65,0000.30,0000.78,0001.27,0001.18,0000.68,16.6,23.3,,00.0,0671.1,30.8
2021-09-26T04:26:00Z,00000200,01000000,0004.84,0003.66,0002.34,0000.33,0000.63,0000.53,0001.52,0001.46,0000.84,16.6,23.2,,00.0,0671.1,30.8
2021-09-26T04:27:00Z,00000200,01000000,0004.78,0003.37,0002.32,0001.33,0000.64,0000.31,0001.19,0001.05,0001.10,16.6,23.2,,00.0,0671.1,30.8
2021-09-26T04:28:00Z,00000200,01000000,0005.15,0003.96,0002.07,0000.60,0000.40,0000.51,0001.20,0001.00,0001.15,16.6,23.2,,00.0,0671.2,30.8
2021-09-26T04:29:00Z,00000200,01000000,0005.28,0003.70,0001.86,0001.07,0000.52,0000.23,0001.10,0001.33,0000.65,16.6,23.2,,00.0,0671.2,30.8
2021-09-26T04:30:00Z,00000200,01000000,0004.78,0003.48,0002.36,0001.06,0000.80,0000.50,0001.48,0001.07,0001.17,16.7,23.2,,00.0,0671.2,30.8
2021-09-26T04:31:00Z,00000200,01000000,0005.72,0003.56,0002.24,0001.21,0000.51,0000.34,0000.98,0001.04,0000.66,16.8,23.2,,00.0,0671.2,30.9
2021-09-26T04:32:00Z,00000200,01000000,0004.74,0004.07,0002.39,0000.70,0000.55,0000.39,0001.20,0001.32,0000.84,16.8,23.3,,00.0,0671.2,30.9
2021-09-26T04:33:00Z,00000200,01000000,0004.69,0003.80,0001.96,0000.90,0000.30,0000.76,0001.22,0001.07,0001.13,16.9,23.3,,00.0,0671.2,30.9
2021-09-26T04:34:00Z,00000200,01000000,0005.75,0003.46,0002.20,0000.68,0000.64,0000.46,0000.96,0000.52,0000.24,16.9,23.3,,00.0,0671.2,30.9
2021-09-26T04:35:00Z,00000200,01000000,0004.41,0003.58,0002.33,0000.84,0000.17,0000.62,0001.06,0000.88,0000.75,16.9,23.3,,00.0,0671.1,30.9
2021-09-26T04:36:00Z,00000200,01000000,0004.88,0003.97,0002.18,0001.03,0000.34,0000.60,0000.90,0001.08,0000.46,16.8,23.3,,00.0,0671.2,30.8
2021-09-26T04:37:00Z,00000200,01000000,0005.07,0003.46,0002.43,0001.10,0000.24,0000.57,0001.09,0000.88,0000.87,16.7,23.3,,00.0,0671.2,30.8
2021-09-26T04:38:00Z,00000200,01000000,0005.41,0003.91,0002.32,0001.04,0000.70,0000.48,0001.27,0001.23,0000.97,16.6,23.2,,00.0,0671.2,30.8
2021-09-26T04:39:00Z,00000200,01000000,0005.45,0003.61,0002.43,0001.36,0000.28,0000.42,0001.19,0001.06,0000.80,16.6,23.2,,00.0,0671.2,30.8
2021-09-26T04:40:00Z,00000200,01000000,0006.06,0003.45,0002.33,0001.05,0000.42,0000.38,0001.58,0001.10,0000.83,16.5,23.2,,00.0,0671.2,30.8
2021-09-26T04:41:00Z,00000200,01000000,0005.06,0003.49,0002.23,0000.68,0000.42,0000.47,0001.03,0001.23,0000.94,16.5,23.1,,00.0,0671.2,30.8
2021-09-26T04:42:00Z,00000200,01000000,0004.80,0003.73,0002.43,0000.63,0000.33,0000.75,0001.32,0001.22,0000.56,16.5,23.1,,00.0,0671.2,30.8
2021-09-26T04:43:00Z,00000200,01000000,0005.12,0003.80,0002.29,0000.46,0000.63,0000.49,0001.50,0001.16,0001.19,16.5,23.1,,00.0,0671.2,30.8
2021-09-26T04:44:00Z,00000200,01000000,0005.77,0004.31,0002.68,0000.60,0000.78,0000.48,0001.16,0001.25,0000.62,16.6,23.1,,00.0,0671.2,30.8
2021-09-26T04:45:00Z,00000200,01000000,0005.66,0004.01,0002.64,0000.98,0000.49,0000.74,0001.36,0000.73,0000.77,16.6,23.1,,00.0,0671.2,30.8
2021-09-26T04:46:00Z,00000200,01000000,0005.65,0004.03,0002.37,0000.41,0000.80,0000.57,0001.45,0001.48,0001.31,16.7,23.2,,00.0,0671.2,30.8
2021-09-26T04:47:00Z,00000200,01000000,0005.63,0004.07,0002.87,0000.77,0000.52,0000.74,0001.39,0001.10,0001.13,16.8,23.2,,00.0,0671.3,30.8
2021-09-26T04:48:00Z,00000200,01000000,0006.04,0004.24,0002.31,0000.67,0000.45,0000.80,0001.38,0001.60,0000.90,16.9,23.3,,00.0,0671.3,30.9
2021-09-26T04:49:00Z,00000200,01000000,0004.79,0003.99,0002.66,0000.38,0000.95,0000.63,0000.82,0001.18,0000.74,17.0,23.3,,00.0,0671.3,30.9
2021-09-26T04:50:00Z,00000200,01000000,0005.61,0004.16,0002.56,0000.85,0000.71,0000.69,0001.79,0001.16,0000.78,17.0,23.3,,00.0,0671.3,30.9
2021-09-26T04:51:00Z,00000200,01000000,0005.13,0003.93,0002.53,0000.59,0000.57,0000.63,0000.90,0001.32,0001.13,17.0,23.3,,00.0,0671.3,30.9
2021-09-26T04:52:00Z,00000200,01000000,0006.10,0004.25,0002.42,0000.77,0000.48,0000.65,0001.35,0000.58,0000.84,17.0,23.3,,00.0,0671.3,30.9
2021-09-26T04:53:00Z,00000200,01000000,0006.26,0003.88,0002.62,0000.98,0000.57,0000.35,0001.19,0001.30,0000.36,16.9,23.3,,00.0,0671.3,30.8
2021-09-26T04:54:00Z,00000200,01000000,0006.62,0004.12,0002.32,0000.82,0000.71,0000.50,0000.96,0000.91,0000.92,16.8,23.3,,00.0,0671.3,30.8
2021-09-26T04:55:00Z,00000200,01000000,0005.16,0004.14,0002.48,0000.57,0000.59,0000.32,0001.22,0001.18,0000.67,16.8,23.2,,00.0,0671.3,30.8
2021-09-26T04:56:00Z,00000200,01000000,0005.42,0004.28,0002.37,0000.71,0000.82,0000.50,0001.58,0001.22,0001.02,16.7,23.2,,00.0,0671.2,30.8
2021-09-26T04:57:00Z,00000200,41000000,,,,,,,0000.35,-000.04,0000.48,16.7,23.2,,00.0,0671.2,30.8
2021-09-26T04:58:00Z,00000200,61000000,,,,,,,0000.11,0000.46,0000.07,16.4,23.3,,00.0,0670.3,30.8
2021-09-26T04:59:00Z,00000200,21000000,,,,,,,0000.18,0000.44,-000.01,16.4,23.4,,00.0,0670.3,30.9
